Location: Hradec Kralove
(50.2170°N, 15.8330°E)
Time: 12:32:59
(UTC+02:00)

BlueWalker 3 - Visible Passes

Search period start: 30 May 2024 00:00
Search period end: 09 June 2024 00:00
Orbit: 481 x 494 km, 53.2° (Epoch: 29 May)

Date Brightness Start Highest point End Pass type
(mag) Time Alt. Az. Time Alt. Az. Time Alt. Az.
02 Jun 4.1 03:51:06 10° S 03:53:26 16° SE 03:55:47 10° E visible
03 Jun 4.1 03:25:50 10° S 03:28:02 15° SE 03:30:14 10° E visible
04 Jun 4.1 03:00:45 11° SSE 03:02:37 14° SE 03:04:41 10° E visible
05 Jun 4.0 02:36:05 12° SSE 02:37:12 13° SE 02:39:05 10° ESE visible
06 Jun 4.1 02:11:20 12° SE 02:11:46 13° SE 02:13:27 10° ESE visible
06 Jun 2.1 03:45:41 10° SW 03:49:18 56° SSE 03:52:59 10° ENE visible
07 Jun 4.1 01:46:32 12° SE 01:46:32 12° SE 01:47:47 10° ESE visible
07 Jun 2.1 03:20:52 15° SW 03:23:49 54° SSE 03:27:30 10° ENE visible
08 Jun 4.3 01:21:40 11° ESE 01:21:40 11° ESE 01:22:03 10° ESE visible
08 Jun 2.1 02:56:00 20° SW 02:58:22 51° SSE 03:02:01 10° ENE visible
